Jefferson, NC

2:27 PM EST on November 11, 2019 (GMT -0500)
Ashe County

Weather History for KGEV - September, 2019

Change the Weather History Date:

Saturday, September 28, 2019

  Actual Average Record
Temperature  
Mean Temperature 70 °F -  
Max Temperature 78 °F 69 °F 83 °F (1986)
Min Temperature 63 °F 46 °F 29 °F (1991)
Cooling Degree Days 6    
Growing Degree Days 20 (Base 50)    
Moisture  
Dew Point 64 °F    
Average Humidity 84    
Maximum Humidity 97    
Minimum Humidity 67    
Precipitation  
Precipitation 0.04 in - - ()
Sea Level Pressure  
Sea Level Pressure 30.25 in    
Wind  
Wind Speed 1 mph ()    
Max Wind Speed 7 mph    
Max Gust Speed -    
Visibility 9.9 miles    
Events Thunderstorm    
Averages and records for this station are not official NWS values.
T = Trace of Precipitation, MM = Missing Value Source: Averaged Metar Reports

Daily Weather History Graph

Daily Weather History Graph

Search for Another Location

Airport or City:

Astronomy

Sep. 28, 2019 Rise Set
Actual Time 7:18 AM EDT 7:13 PM EDT
Civil Twilight 6:52 AM EDT 7:39 PM EDT
Nautical Twilight 6:22 AM EDT 8:09 PM EDT
Astronomical Twilight 5:52 AM EDT 8:39 PM EDT
Moon 6:55 AM EDT (9/28) 7:37 PM EDT (9/28)
Length of Visible Light 12h 47m
Length of Day
11h 55m
Waning Crescent, 0% of the Moon is Illuminated
Sep 28
Waning Crescent
Sep 28
New
Oct 5
First Quarter
Oct 13
Full
Oct 21
Last Quarter

Hourly Weather History & Observations

Time (EDT) Temp. Dew Point Humidity Pressure Visibility Wind Dir Wind Speed Gust Speed Precip Events Conditions
12:15 AM 65.5 °F 62.6 °F 90% 30.19 in 10.0 mi SSW 3.5 mph - N/A   Clear
12:35 AM 64.9 °F 62.1 °F 90% 30.18 in 10.0 mi Calm Calm - N/A   Mostly Cloudy
12:55 AM 65.5 °F 61.9 °F 88% 30.19 in 10.0 mi Calm Calm - N/A   Overcast
1:15 AM 65.7 °F 61.7 °F 87% 30.19 in 10.0 mi Calm Calm - N/A   Mostly Cloudy
1:35 AM 65.5 °F 61.5 °F 87% 30.19 in 10.0 mi Calm Calm - N/A   Mostly Cloudy
1:55 AM 65.3 °F 61.3 °F 87% 30.19 in 10.0 mi Calm Calm - N/A   Scattered Clouds
2:15 AM 64.4 °F 61.3 °F 90% 30.19 in 10.0 mi Calm Calm - N/A   Mostly Cloudy
2:35 AM 64.4 °F 61.3 °F 90% 30.19 in 10.0 mi Calm Calm - N/A   Overcast
2:55 AM 64.6 °F 61.7 °F 90% 30.20 in 10.0 mi Calm Calm - N/A   Overcast
3:15 AM 65.5 °F 62.1 °F 89% 30.20 in 10.0 mi Calm Calm - N/A   Overcast
3:35 AM 65.7 °F 62.6 °F 90% 30.20 in 10.0 mi Calm Calm - N/A   Overcast
3:55 AM 65.3 °F 62.6 °F 91% 30.20 in 10.0 mi Calm Calm - N/A   Overcast
4:15 AM 64.9 °F 62.6 °F 92% 30.21 in 10.0 mi Calm Calm - N/A   Overcast
4:35 AM 64.6 °F 63.0 °F 94% 30.21 in 10.0 mi Calm Calm - N/A   Overcast
4:55 AM 64.8 °F 63.1 °F 94% 30.21 in 10.0 mi Calm Calm - N/A   Overcast
5:15 AM 63.5 °F 62.8 °F 97% 30.21 in 10.0 mi Calm Calm - N/A   Overcast
5:35 AM 64.0 °F 62.8 °F 96% 30.21 in 10.0 mi Calm Calm - N/A   Overcast
5:55 AM 65.3 °F 63.5 °F 94% 30.21 in 10.0 mi Calm Calm - N/A   Overcast
6:15 AM 65.1 °F 63.3 °F 94% 30.21 in 10.0 mi Calm Calm - N/A   Overcast
6:35 AM 64.4 °F 63.3 °F 96% 30.21 in 10.0 mi Calm Calm - N/A   Overcast
6:55 AM 66.2 °F 63.5 °F 91% 30.22 in 7.0 mi Calm Calm - 0.02 in   Overcast
7:15 AM 65.8 °F 59.7 °F 81% 30.22 in 10.0 mi Calm Calm - 0.02 in   Overcast
7:35 AM 66.6 °F 63.0 °F 88% 30.22 in 10.0 mi SSW 3.5 mph - 0.02 in   Overcast
7:55 AM 64.6 °F 61.2 °F 89% 30.23 in 10.0 mi South 3.5 mph - 0.02 in   Mostly Cloudy
8:15 AM 68.5 °F 62.8 °F 82% 30.23 in 10.0 mi Calm Calm - N/A   Mostly Cloudy
8:35 AM 65.5 °F 64.4 °F 96% 30.24 in 7.0 mi ESE 3.5 mph - N/A   Scattered Clouds
8:55 AM 65.1 °F 63.9 °F 96% 30.25 in 7.0 mi Calm Calm - N/A   Scattered Clouds
9:15 AM 66.7 °F 64.8 °F 93% 30.26 in 10.0 mi Calm Calm - N/A   Mostly Cloudy
9:35 AM 67.1 °F 65.1 °F 93% 30.26 in 10.0 mi Calm Calm - N/A   Mostly Cloudy
9:55 AM 67.1 °F 65.3 °F 94% 30.27 in 10.0 mi Calm Calm - N/A   Scattered Clouds
10:15 AM 69.4 °F 66.6 °F 91% 30.27 in 10.0 mi Calm Calm - N/A   Scattered Clouds
10:35 AM 70.7 °F 67.3 °F 89% 30.27 in 10.0 mi Calm Calm - N/A   Mostly Cloudy
10:55 AM 72.3 °F 67.8 °F 86% 30.27 in 10.0 mi East 3.5 mph - N/A   Overcast
11:15 AM 72.9 °F 67.5 °F 83% 30.27 in 10.0 mi Calm Calm - N/A   Mostly Cloudy
11:35 AM 74.8 °F 66.9 °F 76% 30.27 in 10.0 mi Calm Calm - N/A   Scattered Clouds
11:55 AM 75.6 °F 67.3 °F 75% 30.27 in 10.0 mi Calm Calm - N/A   Clear
12:15 PM 78.1 °F 67.6 °F 70% 30.27 in 10.0 mi Calm Calm - N/A   Clear
12:35 PM 77.7 °F 66.4 °F 68% 30.27 in 10.0 mi Calm Calm - N/A   Scattered Clouds
12:55 PM 76.8 °F 68.5 °F 75% 30.27 in 10.0 mi SSE 3.5 mph - N/A   Mostly Cloudy
1:15 PM 72.5 °F 66.0 °F 80% 30.27 in 10.0 mi SSE 3.5 mph - N/A   Scattered Clouds
1:55 PM 73.4 °F 65.3 °F 76% 30.27 in 10.0 mi NNW 6.9 mph - N/A Thunderstorm Thunderstorm
2:15 PM 73.6 °F 65.5 °F 76% 30.27 in 10.0 mi ENE 6.9 mph - N/A   Overcast
2:35 PM 73.6 °F 65.1 °F 75% 30.26 in 10.0 mi ESE 3.5 mph - N/A   Mostly Cloudy
2:55 PM 73.0 °F 64.9 °F 76% 30.26 in 10.0 mi East 3.5 mph - N/A   Scattered Clouds
3:15 PM 74.8 °F 66.4 °F 75% 30.25 in 10.0 mi SSE 3.5 mph - N/A   Clear
3:35 PM 75.4 °F 68.0 °F 78% 30.25 in 10.0 mi SE 4.6 mph - N/A   Clear
3:55 PM 75.0 °F 69.8 °F 84% 30.25 in 10.0 mi South 4.6 mph - N/A   Scattered Clouds
4:15 PM 75.0 °F 69.4 °F 83% 30.25 in 10.0 mi SSE 3.5 mph - N/A   Unknown
4:35 PM 73.9 °F 68.4 °F 83% 30.25 in 10.0 mi SSE 3.5 mph - N/A   Overcast
4:55 PM 75.0 °F 65.3 °F 72% 30.26 in 10.0 mi SSE 4.6 mph - N/A   Overcast
5:35 PM 70.9 °F 62.4 °F 75% 30.27 in 10.0 mi Calm Calm - N/A   Clear
5:55 PM 71.1 °F 63.0 °F 75% 30.27 in 10.0 mi Calm Calm - N/A   Clear
6:15 PM 71.6 °F 60.1 °F 67% 30.27 in 10.0 mi SW 4.6 mph - N/A   Clear
6:35 PM 71.4 °F 60.8 °F 69% 30.26 in 10.0 mi Calm Calm - N/A   Clear
6:55 PM 69.8 °F 62.1 °F 76% 30.26 in 10.0 mi SSW 3.5 mph - N/A   Clear
7:15 PM 70.7 °F 61.0 °F 71% 30.26 in 10.0 mi SSW 3.5 mph - N/A   Clear
7:35 PM 70.2 °F 60.6 °F 72% 30.26 in 10.0 mi Calm Calm - N/A   Clear
7:55 PM 68.7 °F 60.6 °F 75% 30.26 in 10.0 mi SW 4.6 mph - N/A   Clear
8:15 PM 69.6 °F 59.4 °F 70% 30.26 in 10.0 mi Calm Calm - N/A   Clear
8:35 PM 64.4 °F 62.6 °F 94% 30.27 in 10.0 mi Calm Calm - N/A   Clear
8:55 PM 65.5 °F 61.9 °F 88% 30.27 in 10.0 mi Calm Calm - N/A   Clear
9:15 PM 64.0 °F 61.5 °F 91% 30.29 in 10.0 mi Calm Calm - N/A   Clear
9:35 PM 65.5 °F 61.7 °F 88% 30.29 in 10.0 mi Calm Calm - N/A   Clear
9:55 PM 67.1 °F 61.3 °F 82% 30.29 in 10.0 mi Calm Calm - N/A   Clear
10:15 PM 67.1 °F 61.0 °F 81% 30.29 in 10.0 mi WSW 3.5 mph - N/A   Clear
10:35 PM 68.9 °F 63.1 °F 82% 30.29 in 10.0 mi SW 3.5 mph - N/A   Clear
10:55 PM 66.7 °F 62.2 °F 85% 30.29 in 10.0 mi Calm Calm - N/A   Clear
11:15 PM 67.8 °F 62.2 °F 82% 30.30 in 10.0 mi Calm Calm - N/A   Clear
11:35 PM 66.4 °F 62.1 °F 86% 30.30 in 10.0 mi Calm Calm - N/A   Clear
11:55 PM 63.3 °F 61.9 °F 95% 30.30 in 10.0 mi Calm Calm - N/A   Clear